User: anonymous   Login
Location: *
(51.0333°S, 178.4667°E)
Time: 10:48:44
(UTC+00:00)
Language:

STARLINK-71 - Orbit

View from above orbital plane
View from above orbital plane
View from above satellite
View from above satellite

Ground track
Ground track

The orbit data is extracted from the following two-line orbital elements,

1 44252U 19029T   20029.25001157  .00507169  00000-0  27471-1 0  9992
2 44252  52.9992 125.5205 0000916  77.4159  34.2318 15.12035469 37810
Epoch (UTC): 29 January 2020 06:00:01
Eccentricity: 0.0000916
inclination: 52.9992°
perigee height: 529 km
apogee height: 530 km
right ascension of ascending node: 125.5205°
argument of perigee: 77.4159°
revolutions per day: 15.12035469
mean anomaly at epoch: 34.2318°
orbit number at epoch: 3781

The dashed part of the orbit path shows where the satellite is in the earth's shadow,  

DLR